TURKSAT 5B

Last updated on Sun Jul 06 2025 00:02:47 GMT+0000 (Coordinated Universal Time)

1 50212U 21126A 25186.43023891 .00000162 00000+0 00000+0 0 9991 2 50212 0.0702 335.4650 0002814 26.3548 118.7574 1.00271990 12825
UTC large
Height (km)
Speed (km/s)
/
Latitude / Longitude
Inclination (degrees)
Orbital Period (minutes)
Azimuth
Elevation
Range (km)
Doppler Factor

Next 0 passes for location: London (51.5072 / 0.1276)

Sorry there are no passes over London.